Погода в Комаровском

Россия / Оренбургская область     51°01′48″N   59°52′08″E
темп.,
°C
ветер,
м/с
пор.,
м/с
влажн.,
%
обл.,
%
осадки,
мм/ч
давл.,
гПа
погр.,
м
14 мая, пт
пт1423:00+19сз34345 0.0 102627
02:00+18ссз33340 0.0 102613
05:00+16с33400 0.0 102718
08:00+20с33420 0.0 1027144
11:00+25ссз33300 0.0 1027669
14:00+27сз22240 0.0 10262133
17:00+27зсз32244 0.0 10262342
20:00+23сз33380 0.0 102535
15 мая, сб
сб1523:00+20ссз33342 0.0 102519
02:00+18ссв33425 0.0 102518
05:00+17ссв33442 0.0 102623
08:00+21ссв34410 0.0 1026151
11:00+26с23290 0.0 1025860
14:00+28сз33240 0.0 10242578
17:00+28сз43243 0.0 10242665
20:00+24зсз11380 0.0 102311
16 мая, вс
вс1623:00+21сз33330 0.0 102313
02:00+19с23410 0.0 102312
05:00+18св12441 0.0 102311
08:00+22з22395 0.0 1024130
11:00+26сз22305 0.0 1023725
14:00+28сз22245 0.0 10222943
17:00+29зсз22225 0.0 10213148
20:00+25св233396 0.0 102114
17 мая, пн
пн1723:00+22в114074 0.0 102111
02:00+20сз11445 0.0 102111
05:00+18сз114911 0.0 102111
08:00+23ссв224037 0.0 1021143
11:00+28всв112994 0.0 1021797
14:00+29сз122171 0.0 10203427
17:00+30с422268 0.1 10182821
20:00+23зюз584619 0.1 1019170
18 мая, вт
вт1823:00+20с5125832 0.1 1019244
02:00+18зсз336286 0.0 101933
05:00+17сз34645 0.0 101847
08:00+21ссз56545 0.0 1017208
11:00+26с44365 0.0 1017886
14:00+29ссз33255 0.0 10153081
17:00+29зсз542445 0.0 10142971
20:00+25зсз474037 0.0 1014105